Regional Weather Roundup
Issued by NWS

Home | Current Version | Previous Version | Text Only | Print | Product List | Glossary Off
Versions: 1 2 3 4 5 6 7 8 9 10 11 12 13 14 15 16 17 18 19 20 21 22 23 24 25 26 27 28 29 30 31 32 33 34 35 36 37 38 39 40 41 42 43 44 45 46 47 48 49 50

000
ASUS43 KLMK 051402
RWRKY
KENTUCKY REGIONAL WEATHER ROUNDUP
NATIONAL WEATHER SERVICE LOUISVILLE KY
1000 AM EDT THU MAY 05 2016

NOTE "FAIR" INDICATES FEW OR NO CLOUDS BELOW 12,000 FEET
WITH NO SIGNIFICANT WEATHER AND/OR OBSTRUCTIONS TO VISIBILITY.

KYZ001>023-026-027-061>063-070>075-051500-
WESTERN AND SOUTH CENTRAL KENTUCKY

CITY           SKY/WX    TMP DP  RH WIND       PRES   REMARKS
PADUCAH        SUNNY     56  41  57 NW9       29.91R
HENDERSON      CLOUDY    48  37  66 NW12G20   29.90R
OWENSBORO      CLOUDY    48  39  71 N16G22    29.89R
HOPKINSVILLE   SUNNY     54  43  65 NW16      29.85R
BOWLING GREEN  PTSUNNY   51  42  71 NW10G21   29.83R
GLASGOW        NOT AVBL
$$

KYZ024-025-028>034-038-045-046-053-051500-
NORTH CENTRAL KENTUCKY

CITY           SKY/WX    TMP DP  RH WIND       PRES   REMARKS
LOUISVILLE/SDF CLOUDY    48  39  71 N13       29.83R
LOUISVILLE/LOU CLOUDY    47  41  80 N10       29.84R
FORT KNOX      CLOUDY    46  40  81 NW14      29.82R
$$

KYZ035>037-039>044-047>052-055>060-089>105-051500-
NORTHEAST KENTUCKY

CITY           SKY/WX    TMP DP  RH WIND       PRES   REMARKS
LEXINGTON      CLOUDY    46  38  73 N13       29.80R
COVINGTON      CLOUDY    45  36  70 N10       29.82R
FRANKFORT      PTSUNNY   46  39  76 N7        29.80R
$$

KYZ054-064>069-076>088-106>120-051500-
SOUTHEAST KENTUCKY

CITY           SKY/WX    TMP DP  RH WIND       PRES   REMARKS
JACKSON        PTSUNNY   47  39  74 VRB3      29.76S
LONDON         LGT RAIN  45  43  93 N5        29.78R FOG
SOMERSET       NOT AVBL
MIDDLESBORO    DRIZZLE   46  43  91 W3        29.78S
MONTICELLO     LGT RAIN  46  43  89 W9        29.80S
$$





USA.gov is the U.S. government's official web portal to all federal, state and local government web resources and services.